�������l�o���
Date,Time,MP-1(��Sv/h),MP-2(��Sv/h),MP-3(��Sv/h),MP-4(��Sv/h),MP-5(��Sv/h),MP-6(��Sv/h),MP-7(��Sv/h),MP-8(��Sv/h),����,����(m/s),���J
2024/02/21,00:00,0.516,0.781,0.486,0.988,0.702,0.313,0.561,0.523,�k�k��,7.7,�L
2024/02/21,00:10,0.517,0.778,0.488,0.984,0.702,0.313,0.561,0.523,�k,6.5,��
2024/02/21,00:20,0.516,0.779,0.486,0.984,0.701,0.314,0.560,0.522,�k,5.8,��
2024/02/21,00:30,0.515,0.780,0.484,0.984,0.703,0.312,0.560,0.522,�k,6.4,��
2024/02/21,00:40,0.515,0.778,0.486,0.984,0.702,0.312,0.560,0.523,�k,5.4,�L
2024/02/21,00:50,0.515,0.776,0.485,0.985,0.702,0.313,0.560,0.521,�k,4.1,��
2024/02/21,01:00,0.515,0.777,0.484,0.985,0.702,0.313,0.561,0.522,�k�k��,4.0,��
2024/02/21,01:10,0.515,0.776,0.487,0.985,0.702,0.314,0.560,0.523,�k,4.5,��
2024/02/21,01:20,0.514,0.778,0.484,0.983,0.702,0.312,0.559,0.522,�k,3.1,��
2024/02/21,01:30,0.514,0.777,0.485,0.983,0.702,0.311,0.560,0.521,�k,2.6,��
2024/02/21,01:40,0.513,0.777,0.483,0.983,0.703,0.312,0.560,0.521,�k�k��,1.9,��
2024/02/21,01:50,0.515,0.778,0.484,0.984,0.703,0.312,0.560,0.523,�k��,2.6,��
2024/02/21,02:00,0.515,0.777,0.485,0.983,0.700,0.311,0.560,0.523,�k��,2.8,��
2024/02/21,02:10,0.514,0.778,0.484,0.984,0.702,0.311,0.560,0.522,�k��,3.3,��
2024/02/21,02:20,0.515,0.778,0.484,0.984,0.700,0.312,0.560,0.521,�k��,3.6,��
2024/02/21,02:30,0.514,0.776,0.484,0.984,0.702,0.312,0.561,0.523,�k��,3.3,��
2024/02/21,02:40,0.515,0.777,0.485,0.984,0.702,0.311,0.560,0.522,�k��,3.8,��
2024/02/21,02:50,0.515,0.778,0.484,0.984,0.702,0.312,0.561,0.522,�k��,3.6,��
2024/02/21,03:00,0.514,0.777,0.483,0.983,0.700,0.311,0.559,0.522,�k��,4.4,��
2024/02/21,03:10,0.515,0.779,0.484,0.984,0.702,0.312,0.559,0.524,�k�k��,4.2,��
2024/02/21,03:20,0.513,0.778,0.484,0.984,0.702,0.311,0.560,0.524,�k��,4.4,��
2024/02/21,03:30,0.515,0.778,0.485,0.985,0.702,0.312,0.560,0.522,�k��,4.2,��
2024/02/21,03:40,0.514,0.778,0.483,0.985,0.702,0.311,0.561,0.523,�k��,4.5,��
2024/02/21,03:50,0.513,0.778,0.484,0.982,0.701,0.312,0.560,0.520,�k�k��,5.3,��
2024/02/21,04:00,0.514,0.778,0.484,0.985,0.702,0.312,0.560,0.523,�k�k��,5.4,��
2024/02/21,04:10,0.514,0.779,0.484,0.985,0.701,0.311,0.560,0.523,�k�k��,5.2,�L
2024/02/21,04:20,0.515,0.777,0.484,0.985,0.701,0.311,0.561,0.521,�k�k��,5.3,��
2024/02/21,04:30,0.515,0.778,0.484,0.984,0.701,0.311,0.561,0.522,�k�k��,6.1,�L
2024/02/21,04:40,0.515,0.777,0.486,0.985,0.704,0.311,0.562,0.523,�k�k��,5.4,�L
2024/02/21,04:50,0.515,0.776,0.485,0.985,0.700,0.312,0.561,0.525,�k�k��,4.2,��
2024/02/21,05:00,0.516,0.778,0.485,0.984,0.704,0.312,0.561,0.523,�k��,5.1,�L
2024/02/21,05:10,0.515,0.778,0.485,0.986,0.701,0.311,0.561,0.522,�k��,5.0,�L
2024/02/21,05:20,0.515,0.777,0.485,0.984,0.703,0.312,0.564,0.523,�k��,4.6,�L
2024/02/21,05:30,0.516,0.780,0.483,0.985,0.702,0.312,0.562,0.521,�k�k��,3.7,�L
2024/02/21,05:40,0.515,0.777,0.486,0.982,0.702,0.312,0.563,0.523,�k�k��,4.0,��
2024/02/21,05:50,0.517,0.779,0.488,0.984,0.703,0.312,0.564,0.522,�k,4.7,�L
2024/02/21,06:00,0.518,0.782,0.489,0.989,0.705,0.313,0.563,0.523,�k,4.5,�L
2024/02/21,06:10,0.520,0.783,0.490,0.990,0.706,0.316,0.563,0.524,�k,5.5,�L
2024/02/21,06:20,0.520,0.783,0.491,0.991,0.707,0.318,0.564,0.525,�k,5.6,�L
2024/02/21,06:30,0.521,0.783,0.492,0.994,0.708,0.318,0.564,0.525,�k�k��,5.9,�L
2024/02/21,06:40,0.522,0.783,0.493,0.991,0.707,0.317,0.564,0.524,�k�k��,6.7,�L
2024/02/21,06:50,0.523,0.785,0.491,0.991,0.709,0.318,0.563,0.526,�k�k��,5.8,�L
2024/02/21,07:00,0.520,0.781,0.493,0.992,0.708,0.317,0.563,0.526,�k�k��,6.4,�L
2024/02/21,07:10,0.520,0.782,0.488,0.992,0.707,0.316,0.562,0.525,�k��,5.8,�L
2024/02/21,07:20,0.520,0.782,0.489,0.988,0.705,0.314,0.563,0.523,�k��,5.9,�L
2024/02/21,07:30,0.516,0.779,0.488,0.987,0.704,0.315,0.563,0.523,�k��,4.3,�L
2024/02/21,07:40,0.518,0.780,0.489,0.989,0.704,0.315,0.563,0.524,�k��,4.9,�L
2024/02/21,07:50,0.517,0.778,0.486,0.985,0.704,0.314,0.562,0.522,�k��,6.1,�L
2024/02/21,08:00,0.518,0.779,0.486,0.989,0.704,0.313,0.561,0.524,�k�k��,5.0,�L
2024/02/21,08:10,0.518,0.780,0.488,0.987,0.704,0.315,0.562,0.523,�k�k��,4.7,�L
2024/02/21,08:20,0.520,0.779,0.489,0.988,0.705,0.316,0.562,0.522,�k�k��,5.0,�L
2024/02/21,08:30,0.519,0.780,0.491,0.990,0.704,0.317,0.563,0.522,�k�k��,5.5,�L
2024/02/21,08:40,0.520,0.781,0.489,0.985,0.704,0.316,0.561,0.522,�k�k��,5.8,�L
2024/02/21,08:50,0.521,0.779,0.490,0.990,0.704,0.317,0.563,0.523,�k�k��,5.5,�L
2024/02/21,09:00,0.522,0.778,0.491,0.990,0.705,0.320,0.562,0.524,�k��,5.5,�L
2024/02/21,09:10,0.522,0.779,0.494,0.990,0.705,0.319,0.563,0.523,�k��,6.0,�L
2024/02/21,09:20,0.521,0.777,0.490,0.986,0.705,0.320,0.563,0.523,�k�k��,5.7,�L
2024/02/21,09:30,0.522,0.776,0.491,0.985,0.703,0.320,0.562,0.523,�k�k��,6.9,�L
2024/02/21,09:40,0.521,0.775,0.491,0.987,0.702,0.318,0.562,0.523,�k�k��,6.4,�L
2024/02/21,09:50,0.519,0.774,0.490,0.982,0.699,0.316,0.560,0.523,�k�k��,5.8,�L
2024/02/21,10:00,0.518,0.773,0.487,0.982,0.700,0.318,0.563,0.523,�k�k��,6.0,�L
2024/02/21,10:10,0.517,0.772,0.490,0.981,0.696,0.318,0.560,0.523,�k�k��,6.1,�L
2024/02/21,10:20,0.518,0.770,0.489,0.981,0.700,0.319,0.561,0.523,�k�k��,6.6,�L
2024/02/21,10:30,0.518,0.770,0.489,0.979,0.699,0.319,0.563,0.522,�k�k��,6.8,�L
2024/02/21,10:40,0.518,0.771,0.489,0.977,0.697,0.319,0.561,0.522,�k�k��,6.6,�L
2024/02/21,10:50,0.518,0.772,0.489,0.975,0.698,0.319,0.560,0.522,�k��,6.7,�L
2024/02/21,11:00,0.516,0.769,0.488,0.972,0.697,0.320,0.560,0.522,�k��,7.6,�L
2024/02/21,11:10,0.518,0.768,0.487,0.972,0.695,0.320,0.561,0.523,�k�k��,6.3,�L
2024/02/21,11:20,0.515,0.766,0.487,0.969,0.696,0.318,0.558,0.523,�k�k��,6.8,�L
2024/02/21,11:30,0.513,0.765,0.484,0.969,0.692,0.317,0.559,0.520,�k�k��,7.1,�L
2024/02/21,11:40,0.514,0.765,0.486,0.968,0.691,0.317,0.559,0.521,�k�k��,7.7,�L
2024/02/21,11:50,0.516,0.766,0.489,0.967,0.693,0.320,0.559,0.521,�k�k��,7.9,�L
2024/02/21,12:00,0.514,0.765,0.489,0.966,0.692,0.320,0.559,0.520,�k�k��,5.9,�L
2024/02/21,12:10,0.515,0.766,0.487,0.964,0.690,0.319,0.559,0.521,�k�k��,6.3,�L
2024/02/21,12:20,0.514,0.765,0.488,0.962,0.691,0.319,0.558,0.519,�k�k��,6.1,�L
2024/02/21,12:30,0.512,0.761,0.486,0.961,0.690,0.318,0.557,0.521,�k�k��,7.8,�L
2024/02/21,12:40,0.511,0.760,0.486,0.958,0.689,0.318,0.558,0.519,�k�k��,6.8,�L
2024/02/21,12:50,0.511,0.760,0.487,0.959,0.690,0.317,0.556,0.519,�k�k��,6.5,�L
2024/02/21,13:00,0.511,0.762,0.487,0.957,0.689,0.317,0.558,0.520,�k�k��,7.6,�L
2024/02/21,13:10,0.510,0.760,0.484,0.957,0.689,0.316,0.556,0.518,�k�k��,6.9,�L
2024/02/21,13:20,0.511,0.762,0.485,0.956,0.688,0.317,0.558,0.519,�k�k��,6.3,�L
2024/02/21,13:30,0.511,0.760,0.486,0.956,0.688,0.319,0.556,0.520,�k�k��,5.8,�L
2024/02/21,13:40,0.511,0.758,0.487,0.954,0.689,0.319,0.557,0.520,�k�k��,7.1,�L
2024/02/21,13:50,0.510,0.760,0.487,0.955,0.686,0.318,0.557,0.520,�k�k��,6.9,�L
2024/02/21,14:00,0.510,0.759,0.488,0.952,0.687,0.318,0.556,0.520,�k�k��,6.4,�L
2024/02/21,14:10,0.509,0.757,0.486,0.950,0.687,0.318,0.555,0.519,�k�k��,6.7,�L
2024/02/21,14:20,0.509,0.758,0.484,0.950,0.685,0.316,0.555,0.517,�k��,6.5,�L
2024/02/21,14:30,0.506,0.754,0.482,0.949,0.683,0.315,0.555,0.520,�k��,6.9,�L
2024/02/21,14:40,0.505,0.755,0.482,0.949,0.684,0.315,0.554,0.519,�k��,6.9,�L
2024/02/21,14:50,0.505,0.752,0.479,0.947,0.682,0.313,0.553,0.518,�k��,7.4,�L
2024/02/21,15:00,0.502,0.752,0.480,0.949,0.682,0.312,0.553,0.517,�k��,6.6,�L
2024/02/21,15:10,0.504,0.752,0.479,0.945,0.683,0.312,0.554,0.518,�k��,7.6,�L
2024/02/21,15:20,0.503,0.752,0.480,0.945,0.681,0.312,0.552,0.518,�k��,6.1,�L
2024/02/21,15:30,0.502,0.753,0.479,0.946,0.680,0.313,0.554,0.518,�k��,7.6,�L
2024/02/21,15:40,0.503,0.751,0.479,0.946,0.681,0.313,0.552,0.517,�k��,7.4,�L
2024/02/21,15:50,0.503,0.752,0.480,0.944,0.681,0.312,0.553,0.517,�k��,7.5,�L
2024/02/21,16:00,0.503,0.751,0.480,0.946,0.680,0.314,0.554,0.519,�k��,7.2,�L
2024/02/21,16:10,0.503,0.750,0.481,0.944,0.681,0.314,0.553,0.519,�k��,8.0,�L
2024/02/21,16:20,0.505,0.750,0.482,0.946,0.679,0.316,0.554,0.519,�k��,7.5,�L
2024/02/21,16:30,0.503,0.752,0.481,0.943,0.679,0.316,0.554,0.518,�k��,6.8,�L
2024/02/21,16:40,0.505,0.752,0.480,0.942,0.679,0.314,0.554,0.518,�k��,6.9,�L
2024/02/21,16:50,0.502,0.753,0.480,0.941,0.678,0.313,0.553,0.517,�k��,6.6,�L
2024/02/21,17:00,0.503,0.750,0.481,0.942,0.681,0.314,0.553,0.518,�k��,6.8,�L
2024/02/21,17:10,0.502,0.751,0.480,0.943,0.680,0.313,0.553,0.517,�k��,7.4,�L
2024/02/21,17:20,0.503,0.749,0.482,0.941,0.679,0.314,0.553,0.518,�k��,7.8,�L
2024/02/21,17:30,0.503,0.750,0.482,0.940,0.679,0.314,0.552,0.516,�k�k��,8.0,�L
2024/02/21,17:40,0.501,0.753,0.482,0.940,0.678,0.315,0.551,0.520,�k��,10.2,�L
2024/02/21,17:50,0.501,0.750,0.482,0.939,0.677,0.315,0.551,0.518,�k�k��,8.2,�L
2024/02/21,18:00,0.502,0.747,0.482,0.938,0.676,0.314,0.551,0.517,�k�k��,9.6,�L
2024/02/21,18:10,0.503,0.748,0.481,0.935,0.676,0.315,0.551,0.517,�k�k��,9.6,�L
2024/02/21,18:20,0.502,0.745,0.482,0.934,0.675,0.314,0.548,0.518,�k��,9.5,�L
2024/02/21,18:30,0.504,0.746,0.481,0.935,0.674,0.314,0.548,0.517,�k�k��,11.3,�L
2024/02/21,18:40,0.502,0.748,0.480,0.936,0.672,0.316,0.549,0.518,�k�k��,8.5,�L
2024/02/21,18:50,0.503,0.746,0.482,0.938,0.673,0.317,0.549,0.519,�k�k��,9.4,�L
2024/02/21,19:00,0.502,0.746,0.484,0.935,0.674,0.317,0.549,0.517,�k,7.8,�L
2024/02/21,19:10,0.505,0.747,0.481,0.936,0.674,0.317,0.549,0.517,�k�k��,10.3,�L
2024/02/21,19:20,0.503,0.746,0.481,0.936,0.670,0.316,0.549,0.519,�k�k��,10.6,�L
2024/02/21,19:30,0.502,0.744,0.481,0.933,0.671,0.317,0.549,0.515,�k�k��,9.3,�L
2024/02/21,19:40,0.502,0.744,0.483,0.932,0.671,0.317,0.548,0.517,�k�k��,9.9,�L
2024/02/21,19:50,0.501,0.746,0.479,0.931,0.670,0.316,0.548,0.517,�k�k��,9.8,�L
2024/02/21,20:00,0.500,0.744,0.479,0.930,0.670,0.316,0.547,0.517,�k�k��,11.1,�L
2024/02/21,20:10,0.499,0.743,0.479,0.931,0.668,0.316,0.547,0.516,�k�k��,9.1,�L
2024/02/21,20:20,0.499,0.742,0.477,0.929,0.667,0.315,0.546,0.515,�k�k��,11.3,�L
2024/02/21,20:30,0.498,0.741,0.480,0.929,0.667,0.315,0.547,0.516,�k�k��,10.2,�L
2024/02/21,20:40,0.498,0.741,0.478,0.929,0.666,0.315,0.546,0.515,�k�k��,10.3,�L
2024/02/21,20:50,0.499,0.742,0.477,0.928,0.667,0.316,0.547,0.516,�k�k��,9.9,�L
2024/02/21,21:00,0.497,0.741,0.478,0.928,0.664,0.315,0.546,0.515,�k�k��,10.9,�L
2024/02/21,21:10,0.497,0.740,0.477,0.927,0.664,0.314,0.546,0.517,�k�k��,11.3,�L
2024/02/21,21:20,0.497,0.741,0.477,0.930,0.664,0.313,0.547,0.515,�k��,9.7,�L
2024/02/21,21:30,0.497,0.740,0.476,0.927,0.664,0.313,0.546,0.515,�k��,9.9,�L
2024/02/21,21:40,0.497,0.741,0.476,0.928,0.665,0.312,0.545,0.514,�k�k��,9.8,�L
2024/02/21,21:50,0.496,0.740,0.475,0.927,0.663,0.312,0.544,0.513,�k��,9.7,�L
2024/02/21,22:00,0.496,0.740,0.475,0.929,0.662,0.310,0.544,0.514,�k�k��,8.7,�L
2024/02/21,22:10,0.496,0.740,0.475,0.927,0.663,0.312,0.545,0.514,�k�k��,9.2,�L
2024/02/21,22:20,0.495,0.741,0.473,0.926,0.661,0.310,0.544,0.512,�k��,9.3,�L
2024/02/21,22:30,0.495,0.739,0.475,0.925,0.660,0.310,0.543,0.513,�k��,9.2,�L
2024/02/21,22:40,0.493,0.739,0.472,0.924,0.662,0.313,0.545,0.513,�k�k��,8.3,�L
2024/02/21,22:50,0.494,0.739,0.474,0.923,0.661,0.310,0.542,0.513,�k�k��,9.3,�L
2024/02/21,23:00,0.493,0.738,0.473,0.925,0.665,0.310,0.543,0.513,�k�k��,10.2,�L
2024/02/21,23:10,0.494,0.738,0.473,0.923,0.662,0.311,0.543,0.513,�k�k��,9.3,�L
2024/02/21,23:20,0.495,0.739,0.474,0.924,0.662,0.309,0.544,0.513,�k�k��,9.2,�L
2024/02/21,23:30,0.494,0.739,0.474,0.925,0.664,0.309,0.545,0.512,�k�k��,8.1,�L
2024/02/21,23:40,0.493,0.737,0.472,0.924,0.660,0.308,0.544,0.513,�k�k��,9.8,�L
2024/02/21,23:50,0.492,0.740,0.471,0.922,0.662,0.308,0.544,0.512,�k�k��,8.8,��
